Weather in Koping

Sweden     59°30′53″N   15°59′51″E
temp.,
°C
wind,
m/s
gust,
m/s
humid.,
%
clouds,
%
prec.,
mm/h
press.,
hPa
HPBL,
m
19 september, sun
sun1923:00+9ene2459100 0.0 1026126
02:00+6ne268673 0.0 1026153
05:00+4nne268769 0.0 1027132
08:00+6nne3875100 0.0 1027246
11:00+10ne3758100 0.0 1027734
14:00+11ene355278 0.0 10271293
17:00+11ne345598 0.0 10261348
20:00+8ne2670100 0.0 1027265
20 september, mon
mon2023:00+8ne268065 0.1 1027275
02:00+5nne258682 0.1 102889
05:00+7nne3774100 0.0 1027291
08:00+7nne2778100 0.0 1028321
11:00+9nne3569100 0.0 1028381
14:00+9nne2464100 0.1 1027447
17:00+9nne2470100 0.1 1027268
20:00+8ne1275100 0.1 102751
21 september, tue
tue2123:00+7se1275100 0.0 102756
02:00+7sse1172100 0.0 102618
05:00+7s1272100 0.0 102543
08:00+8ssw1472100 0.0 1025154
11:00+10ssw3559100 0.0 1024821
14:00+10ssw2570100 0.1 1023772
17:00+8s3787100 0.4 1023446
20:00+8s2788100 0.5 1023279
22 september, wed
wed2223:00+8s2691100 0.0 1023250
02:00+8sse2493100 0.0 1022124
05:00+9sse259291 0.0 1021195
08:00+9sse2693100 0.0 1020217
11:00+12s368295 0.0 1019381
14:00+15s466799 0.0 1017871
17:00+16s376667 0.0 1014968
20:00+13ssw411846 0.0 1012459
23 september, thu
thu2323:00+12ssw4128846 0.0 1009737
02:00+13sw51285100 0.0 10061056
05:00+13sw51378100 0.2 10031242
08:00+13wsw4985100 0.5 1000896
11:00+13wsw587254 0.6 9991061
14:00+14wnw585923 0.9 9971437
17:00+9nnw5875100 0.3 9981033
20:00+8nnw247782 0.3 998142